Location: Arpaise
(41.0333°N, 14.7333°E)
Time: 21:32:03
(UTC+00:00)

Cosmos 846 Rocket - Pass Details

Date: 18 January 2021
Orbit: 948 x 991 km, 82.9° (Epoch: 06 March)

Event Time Altitude Azimuth Distance (km) Brightness Sun altitude
Rises 17:43:23 0° 155° (SSE) 3,675 8.4 -19.0°
Reaches altitude 10° 17:46:12 10° 145° (SE) 2,726 7.6 -19.6°
Enters shadow 17:48:50 22° 125° (SE) 1,995 6.7 -20.1°
